[[{"header":{"parameterUnit":"m.s-1","parameterCategory":1,"la1":30.2991,"la2":30.254,"lo1":-89.0895,"lo2":-89.0444,"dy":0.0017,"dx":0.0017,"nx":28,"ny":28,"refTime":"2024-06-10T09:00:00:Z","depth":0,"parameterNumber":2,"parameterNumberName":"U-component_of_WINDS"},"data":[0,0,0,0,0,0,0,0,0,0,0,0,0,0,0,0,0,0,0,0,0,0,0,0,0,0,0,0,0,0,0,0,0,0,0,0,0,0,0,0,0,0,0,0,0,0,0,0,0,0,0,0,0,0,0,0,0,0,0.5084,0.5085,0,0.5151,0.5152,0.5153,0.5203,0.5204,0.5204,0.5204,0.5271,0.5272,0.5274,0,0,0,0,0,0,0,0,0,0,0,0,0,0.4997,0.4998,0.5084,0.5085,0.5086,0.5151,0.5152,0.5153,0.5203,0.5204,0.5204,0.5205,0.5271,0.5272,0.5274,0,0,0,0,0,0,0,0,0,0,0,0,0,0.5046,0.4999,0.5084,0.5119,0.5122,0.5151,0.5152,0.5153,0.5203,0.5204,0.5204,0.5205,0.527,0.5272,0.5274,0.5273,0,0,0.528,0.5281,0,0,0,0,0,0,0,0,0.5044,0.505,0.5113,0.5116,0.5121,0.517,0.5146,0.5193,0.5203,0.5172,0.5204,0.5205,0.5237,0.5241,0.5252,0.5276,0.5279,0.528,0.5282,0.5283,0.5283,0,0,0,0,0,0,0,0.504,0.5047,0.5111,0.5114,0.5118,0.513,0.5138,0.5155,0.52,0.5175,0.5179,0.5186,0.5239,0.525,0.5254,0.528,0.528,0.5282,0.5283,0.5284,0.5305,0.5304,0,0,0,0,0,0,0.5032,0.5044,0.5109,0.5113,0.5083,0.5131,0.514,0.5153,0.52,0.5208,0.5186,0.5188,0.5247,0.5252,0.5257,0.5258,0.5283,0.5284,0.5286,0.5306,0.5305,0.5304,0,0,0,0,0,0,0.5029,0.5037,0.5106,0.5079,0.5089,0.5132,0.5146,0.5154,0.5166,0.5208,0.5216,0.5189,0.5247,0.5254,0.5269,0.5261,0.5285,0.5287,0.5306,0.5305,0.5304,0.526,0,0,0,0,0,0,0.5027,0.5036,0.5036,0.5079,0.509,0.5117,0.5146,0.5155,0.5169,0.5174,0.5213,0.522,0.5248,0.5265,0.527,0.5264,0.5289,0.5307,0.5306,0.5305,0.5262,0.5258,0.5254,0,0,0,0,0,0.5023,0.5021,0.5036,0.5044,0.5092,0.5116,0.5123,0.5155,0.5168,0.5169,0.5196,0.5219,0.5261,0.5266,0.5273,0.5267,0.5308,0.5306,0.5305,0.5264,0.5259,0.5254,0,0,0,0,0,0,0.4975,0.5027,0.5044,0.5056,0.5081,0.5125,0.5126,0.5148,0.517,0.5173,0.5212,0.5221,0.5231,0.5251,0.5255,0.5268,0.5287,0.5287,0.5254,0.5249,0.5245,0.524,0.529,0,0,0,0,0,0.4966,0.4982,0.5026,0.5032,0.5044,0.5083,0.5095,0.5118,0.5145,0.5156,0.5184,0.521,0.5229,0.524,0.526,0.5266,0.5275,0.5265,0.526,0.5257,0.5256,0.5259,0.5255,0.5299,0.5299,0.5299,0,0,0.4947,0.4977,0.4985,0.5023,0.5046,0.5061,0.5091,0.5106,0.5118,0.5158,0.5174,0.5195,0.5226,0.5236,0.5242,0.5252,0.5246,0.5255,0.5251,0.5253,0.5257,0.5253,0.5249,0.5298,0.5298,0.5298,0,0,0.492,0.4945,0.4952,0.4974,0.5008,0.5034,0.5035,0.5075,0.5091,0.5108,0.5138,0.5152,0.5184,0.5205,0.5219,0.52,0.5221,0.5205,0.5182,0.5185,0.5181,0.5178,0.5171,0.5167,0.5204,0.5204,0.5204,0,0.4891,0.4916,0.4952,0.4965,0.4981,0.5019,0.5026,0.5046,0.5084,0.5093,0.5105,0.5146,0.5169,0.5184,0.5179,0.519,0.5193,0.52,0.5179,0.5177,0.5174,0.5167,0.5164,0.5202,0.5202,0.5202,0.5202,0,0.4879,0.4896,0.4897,0.4934,0.495,0.4959,0.4996,0.5008,0.5029,0.5054,0.5069,0.5099,0.5125,0.5131,0.5152,0.5148,0.5154,0.5172,0.5192,0.5167,0.5161,0.5159,0.5198,0.5199,0.52,0.52,0,0,0.4823,0.488,0.4879,0.4896,0.4937,0.495,0.4961,0.4987,0.4996,0.5021,0.503,0.5057,0.5074,0.509,0.5114,0.5117,0.5098,0.5135,0.5136,0.5126,0.5095,0.508,0.5077,0.5114,0.5113,0.5113,0.5092,0,0.4801,0.4824,0.4857,0.4869,0.4884,0.4921,0.493,0.4955,0.4978,0.4994,0.5019,0.5037,0.5059,0.5069,0.5073,0.51,0.5092,0.5102,0.5122,0.5122,0.5112,0.5074,0.5058,0.5037,0.509,0.509,0.509,0,0.4779,0.4802,0.4815,0.4854,0.4862,0.487,0.4896,0.4911,0.494,0.4957,0.4975,0.5001,0.5014,0.5033,0.5051,0.5057,0.5067,0.5081,0.5081,0.5083,0.5104,0.5074,0.5032,0.5028,0.5086,0.5087,0.5087,0,0.4735,0.477,0.4782,0.4796,0.4842,0.4846,0.4865,0.4895,0.4909,0.4932,0.4941,0.4965,0.4977,0.4995,0.5026,0.5038,0.504,0.5062,0.5054,0.5053,0.5052,0.5051,0.5009,0.506,0.506,0.506,0.506,0,0.4707,0.4713,0.4763,0.4771,0.4779,0.4816,0.4823,0.4845,0.4872,0.4883,0.4917,0.4927,0.4969,0.4983,0.5008,0.5019,0.5024,0.5037,0.5044,0.5034,0.5032,0.504,0.5042,0.5059,0.5059,0.5059,0.506,0,0.4659,0.4693,0.4709,0.4751,0.4761,0.4765,0.4801,0.4809,0.4834,0.4849,0.4854,0.4893,0.4913,0.4946,0.4975,0.4991,0.4996,0.5008,0.4987,0.499,0.4979,0.4979,0.494,0.4937,0.499,0.499,0.4989,0,0.4638,0.4644,0.4687,0.4697,0.4715,0.4732,0.4746,0.4783,0.4796,0.483,0.4834,0.4856,0.4875,0.4904,0.4934,0.4956,0.4968,0.4953,0.4971,0.4961,0.4966,0.4965,0.4965,0.4948,0.4947,0.4947,0.4946,0,0.4597,0.4613,0.4633,0.4658,0.4674,0.4695,0.4718,0.4725,0.4767,0.478,0.48,0.4815,0.4845,0.4866,0.4892,0.4911,0.4935,0.494,0.4939,0.4928,0.4915,0.4921,0.4974,0.4941,0.4941,0.4942,0.4942,0.4942,0.4561,0.4568,0.4599,0.4619,0.4641,0.4661,0.4671,0.4697,0.4715,0.4742,0.4763,0.4782,0.481,0.4848,0.4866,0.488,0.4892,0.489,0.489,0.4888,0.4884,0.4914,0.4885,0.4886,0.4886,0.4886,0.4886,0,0.4521,0.4543,0.4561,0.4593,0.4608,0.4631,0.4657,0.4668,0.4684,0.471,0.4728,0.4751,0.4772,0.4804,0.4827,0.4832,0.4844,0.4837,0.4836,0.484,0.4873,0.4872,0.4827,0.4827,0.4827,0.4827,0.4827,0.4827,0.4502,0.4514,0.4534,0.4557,0.4579,0.4597,0.4611,0.4629,0.465,0.4674,0.4691,0.4713,0.474,0.4765,0.4785,0.4794,0.48,0.479,0.4802,0.4832,0.4838,0.4843,0.4841,0.4791,0.4791,0.4767,0.4767,0.4767]},{"header":{"parameterUnit":"m.s-1","parameterCategory":1,"la1":30.2991,"la2":30.254,"lo1":-89.0895,"lo2":-89.0444,"dy":0.0017,"dx":0.0017,"nx":28,"ny":28,"refTime":"2024-06-10T09:00:00:Z","depth":0,"parameterNumber":3,"parameterNumberName":"V-component_of_WINDS"},"data":[0,0,0,0,0,0,0,0,0,0,0,0,0,0,0,0,0,0,0,0,0,0,0,0,0,0,0,0,0,0,0,0,0,0,0,0,0,0,0,0,0,0,0,0,0,0,0,0,0,0,0,0,0,0,0,0,0,0,1.2254,1.2253,0,1.2163,1.2162,1.2161,1.2097,1.2096,1.2096,1.2095,1.1998,1.1996,1.1994,0,0,0,0,0,0,0,0,0,0,0,0,0,1.2371,1.2369,1.2254,1.2253,1.2252,1.2163,1.2162,1.216,1.2097,1.2096,1.2096,1.2095,1.1999,1.1996,1.1993,0,0,0,0,0,0,0,0,0,0,0,0,0,1.2304,1.2368,1.2255,1.221,1.2205,1.2163,1.2162,1.216,1.2097,1.2096,1.2095,1.2095,1.1999,1.1996,1.1993,1.1988,0,0,1.1983,1.1982,0,0,0,0,0,0,0,0,1.2308,1.23,1.2218,1.2213,1.2207,1.2141,1.2167,1.2102,1.2097,1.2138,1.2095,1.2094,1.2046,1.2039,1.2023,1.1983,1.1979,1.1983,1.1981,1.198,1.1979,0,0,0,0,0,0,0,1.2312,1.2303,1.2218,1.2216,1.221,1.2193,1.2183,1.2154,1.2097,1.2134,1.2129,1.212,1.2043,1.2026,1.202,1.1977,1.1983,1.198,1.1978,1.1977,1.1927,1.1928,0,0,0,0,0,0,1.2325,1.2307,1.2221,1.2215,1.2257,1.2192,1.218,1.2163,1.2097,1.2086,1.212,1.2117,1.2032,1.2024,1.2016,1.2005,1.198,1.1977,1.1975,1.1927,1.1927,1.1928,0,0,0,0,0,0,1.2327,1.2318,1.2225,1.226,1.2247,1.219,1.2171,1.2161,1.2145,1.2086,1.2075,1.2114,1.2031,1.2021,1.1995,1.2001,1.1975,1.1972,1.1926,1.1927,1.1928,1.1983,0,0,0,0,0,0,1.2331,1.2319,1.2317,1.2261,1.2245,1.2206,1.2172,1.216,1.214,1.2134,1.2078,1.2068,1.203,1.2,1.1992,1.1996,1.197,1.1925,1.1926,1.1927,1.198,1.1985,1.199,0,0,0,0,0,1.2335,1.2336,1.2317,1.2307,1.2242,1.2207,1.2198,1.2155,1.214,1.2137,1.21,1.2069,1.2002,1.1998,1.1988,1.1991,1.1925,1.1926,1.1927,1.1978,1.1984,1.199,0,0,0,0,0,0,1.2393,1.2327,1.2306,1.2289,1.2254,1.2196,1.2191,1.2164,1.2131,1.2128,1.2075,1.2063,1.2042,1.2014,1.2012,1.1982,1.1959,1.1959,1.2001,1.2007,1.2012,1.2018,1.1967,0,0,0,0,0,1.2404,1.2382,1.2325,1.2315,1.2299,1.2248,1.2231,1.2202,1.2163,1.2148,1.2108,1.2071,1.2041,1.2022,1.1992,1.1976,1.1962,1.1973,1.1978,1.1982,1.1982,1.1971,1.1974,1.1933,1.1933,1.1933,0,0,1.2426,1.2387,1.2376,1.2326,1.2295,1.2272,1.2236,1.2214,1.2196,1.2144,1.2117,1.2087,1.2042,1.2021,1.201,1.1997,1.1991,1.1984,1.1988,1.1985,1.1972,1.1976,1.198,1.1934,1.1933,1.1933,0,0,1.2454,1.2423,1.2411,1.2381,1.2336,1.2302,1.23,1.2246,1.2224,1.2197,1.2157,1.2135,1.2085,1.2054,1.2032,1.2048,1.2019,1.204,1.2065,1.2055,1.2058,1.206,1.2065,1.2068,1.204,1.204,1.204,0,1.2486,1.2451,1.2407,1.2387,1.2366,1.2319,1.2305,1.2278,1.2225,1.2211,1.2197,1.2133,1.21,1.2071,1.2075,1.2059,1.2053,1.2046,1.2061,1.2063,1.2065,1.2069,1.2071,1.2043,1.2043,1.2042,1.2042,0,1.2493,1.247,1.2465,1.2416,1.2394,1.2377,1.233,1.2312,1.2285,1.2252,1.2224,1.2182,1.2142,1.2133,1.2105,1.21,1.2093,1.2071,1.2047,1.2073,1.2076,1.2077,1.2047,1.2046,1.2045,1.2044,0,0,1.2554,1.2482,1.2481,1.2458,1.2405,1.2385,1.2366,1.2327,1.2313,1.2278,1.226,1.2219,1.2198,1.2173,1.2141,1.2132,1.2147,1.2111,1.2109,1.2118,1.2137,1.2154,1.2156,1.2127,1.2127,1.2128,1.2141,0,1.2574,1.2538,1.2498,1.2475,1.2453,1.2408,1.2391,1.2356,1.2325,1.23,1.2265,1.2236,1.2212,1.2196,1.2185,1.2148,1.215,1.2146,1.2108,1.2108,1.2121,1.2158,1.2175,1.219,1.2142,1.2142,1.2142,0,1.2591,1.256,1.2535,1.2484,1.2473,1.2459,1.242,1.2397,1.2356,1.2334,1.2307,1.2273,1.2249,1.2229,1.2194,1.2193,1.2175,1.2154,1.2153,1.2148,1.2126,1.2152,1.2193,1.2196,1.2144,1.2143,1.2143,0,1.2638,1.2589,1.2568,1.2549,1.2489,1.248,1.2454,1.2413,1.2392,1.2358,1.2344,1.2308,1.2287,1.2259,1.2216,1.2205,1.2186,1.2162,1.2166,1.2167,1.2163,1.2164,1.2201,1.2153,1.2153,1.2153,1.2153,0,1.2663,1.265,1.2588,1.2575,1.2558,1.2512,1.2496,1.2466,1.243,1.2409,1.2368,1.2349,1.2293,1.2268,1.2234,1.221,1.2201,1.2182,1.2173,1.2185,1.2188,1.2172,1.217,1.2154,1.2153,1.2153,1.2153,0,1.2711,1.267,1.2644,1.2589,1.2575,1.2565,1.2518,1.2503,1.247,1.2444,1.2436,1.2383,1.2351,1.2305,1.2259,1.2236,1.2217,1.2203,1.2231,1.2225,1.2232,1.2231,1.226,1.2261,1.2213,1.2214,1.2214,0,1.273,1.2719,1.2664,1.2648,1.2624,1.2598,1.2577,1.2531,1.251,1.2463,1.2453,1.2418,1.2387,1.2338,1.2295,1.2258,1.2243,1.2255,1.2237,1.225,1.2242,1.2243,1.2241,1.2259,1.226,1.2261,1.2261,0,1.2767,1.2747,1.272,1.2685,1.2661,1.2631,1.2599,1.2588,1.2534,1.2513,1.248,1.2457,1.241,1.2375,1.2333,1.2305,1.2274,1.2268,1.2266,1.2279,1.2295,1.2285,1.2242,1.2267,1.2266,1.2266,1.2266,1.2265,1.2801,1.2789,1.2748,1.2718,1.2689,1.266,1.2644,1.2609,1.2581,1.254,1.2514,1.2482,1.244,1.2381,1.2354,1.2328,1.2315,1.2314,1.2313,1.2313,1.2317,1.23,1.232,1.232,1.232,1.2319,1.2319,0,1.2835,1.2807,1.278,1.2737,1.2713,1.2688,1.2651,1.2632,1.2605,1.257,1.2541,1.2502,1.2468,1.2423,1.2385,1.2373,1.2358,1.2364,1.2364,1.2358,1.2331,1.2336,1.2377,1.2377,1.2377,1.2377,1.2377,1.2377,1.285,1.2828,1.2804,1.2766,1.2738,1.2707,1.2688,1.2661,1.2632,1.2592,1.2564,1.2535,1.2495,1.2454,1.2421,1.2408,1.2396,1.2407,1.239,1.2365,1.236,1.2355,1.2359,1.2405,1.2405,1.2419,1.2419,1.2419]}]]